Time,TemperatureF,DewpointF,PressureIn,WindDirection,WindDirectionDegrees,WindSpeedMPH,WindSpeedGustMPH,Humidity,HourlyPrecipIn,Conditions,Clouds,dailyrainin,SoftwareType,DateUTC
2013-05-18 00:42:00,56.0,53.0,-100.00,North,355,0.0,0.0,90,-99.99,,,-99.99,,2013-05-18 05:42:00,
2013-05-18 00:52:00,56.0,53.0,-100.00,North,355,0.0,0.0,90,-99.99,,,-99.99,,2013-05-18 05:52:00,
2013-05-18 01:02:00,56.0,53.0,-100.00,North,355,0.0,0.0,90,-99.99,,,-99.99,,2013-05-18 06:02:00,
2013-05-18 01:42:00,54.0,52.0,-100.00,North,355,0.0,0.0,92,-99.99,,,-99.99,,2013-05-18 06:42:00,
2013-05-18 01:52:00,54.0,52.0,-100.00,North,355,0.0,0.0,92,-99.99,,,-99.99,,2013-05-18 06:52:00,
2013-05-18 02:01:00,54.0,52.0,-100.00,North,355,0.0,0.0,92,-99.99,,,-99.99,,2013-05-18 07:01:00,
2013-05-18 02:11:00,54.0,52.0,-100.00,North,355,0.0,0.0,92,-99.99,,,-99.99,,2013-05-18 07:11:00,
2013-05-18 03:42:00,54.0,53.0,-100.00,North,355,0.0,0.0,98,-99.99,,,-99.99,,2013-05-18 08:42:00,
2013-05-18 03:52:00,54.0,53.0,-100.00,North,355,0.0,0.0,98,-99.99,,,-99.99,,2013-05-18 08:52:00,
2013-05-18 04:02:00,54.0,53.0,-100.00,North,355,0.0,0.0,98,-99.99,,,-99.99,,2013-05-18 09:02:00,
2013-05-18 04:11:00,54.0,53.0,-100.00,North,355,0.0,0.0,98,-99.99,,,-99.99,,2013-05-18 09:11:00,
2013-05-18 06:42:00,56.0,56.0,-100.00,North,355,0.0,0.0,99,-99.99,,,-99.99,,2013-05-18 11:42:00,
2013-05-18 06:52:00,56.0,56.0,-100.00,North,355,0.0,0.0,99,-99.99,,,-99.99,,2013-05-18 11:52:00,
2013-05-18 07:02:00,56.0,56.0,-100.00,North,355,0.0,0.0,99,-99.99,,,-99.99,,2013-05-18 12:02:00,
2013-05-18 07:12:00,56.0,56.0,-100.00,North,355,0.0,0.0,99,-99.99,,,-99.99,,2013-05-18 12:12:00,
2013-05-18 07:42:00,61.0,60.0,-100.00,North,355,0.0,0.0,99,-99.99,,,-99.99,,2013-05-18 12:42:00,
2013-05-18 07:52:00,61.0,60.0,-100.00,North,355,0.0,0.0,99,-99.99,,,-99.99,,2013-05-18 12:52:00,
2013-05-18 09:42:00,70.0,70.0,-100.00,North,355,0.0,0.0,99,-99.99,,,-99.99,,2013-05-18 14:42:00,
2013-05-18 09:54:00,70.0,70.0,-100.00,North,355,0.0,0.0,99,-99.99,,,-99.99,,2013-05-18 14:54:00,
2013-05-18 10:43:00,74.0,74.0,-100.00,North,355,0.0,0.0,99,-99.99,,,-99.99,,2013-05-18 15:43:00,
2013-05-18 10:53:00,74.0,74.0,-100.00,North,355,0.0,0.0,99,-99.99,,,-99.99,,2013-05-18 15:53:00,
2013-05-18 12:42:00,79.0,70.0,-100.00,North,355,0.0,0.0,75,-99.99,,,-99.99,,2013-05-18 17:42:00,
2013-05-18 12:52:00,79.0,70.0,-100.00,North,355,0.0,0.0,75,-99.99,,,-99.99,,2013-05-18 17:52:00,
2013-05-18 13:42:00,78.0,67.0,-100.00,North,355,0.0,0.0,68,-99.99,,,-99.99,,2013-05-18 18:42:00,
2013-05-18 13:52:00,78.0,67.0,-100.00,North,355,0.0,0.0,68,-99.99,,,-99.99,,2013-05-18 18:52:00,
2013-05-18 14:02:00,78.0,67.0,-100.00,North,355,0.0,0.0,68,-99.99,,,-99.99,,2013-05-18 19:02:00,
2013-05-18 14:12:00,78.0,67.0,-100.00,North,355,0.0,0.0,68,-99.99,,,-99.99,,2013-05-18 19:12:00,
2013-05-18 14:42:00,82.0,67.0,-100.00,North,355,0.0,0.0,62,-99.99,,,-99.99,,2013-05-18 19:42:00,
2013-05-18 14:52:00,82.0,67.0,-100.00,North,355,0.0,0.0,62,-99.99,,,-99.99,,2013-05-18 19:52:00,
2013-05-18 15:02:00,82.0,67.0,-100.00,North,355,0.0,0.0,62,-99.99,,,-99.99,,2013-05-18 20:02:00,
2013-05-18 15:11:00,82.0,67.0,-100.00,North,355,0.0,0.0,62,-99.99,,,-99.99,,2013-05-18 20:11:00,
2013-05-18 15:42:00,83.0,68.0,-100.00,North,355,0.0,0.0,61,-99.99,,,-99.99,,2013-05-18 20:42:00,
2013-05-18 15:52:00,83.0,68.0,-100.00,North,355,0.0,0.0,61,-99.99,,,-99.99,,2013-05-18 20:52:00,
2013-05-18 16:01:00,83.0,68.0,-100.00,North,355,0.0,0.0,61,-99.99,,,-99.99,,2013-05-18 21:01:00,
2013-05-18 16:44:00,81.0,65.0,-100.00,North,355,0.0,0.0,57,-99.99,,,-99.99,,2013-05-18 21:44:00,
2013-05-18 16:53:00,81.0,65.0,-100.00,North,355,0.0,0.0,57,-99.99,,,-99.99,,2013-05-18 21:53:00,
2013-05-18 17:03:00,81.0,65.0,-100.00,North,355,0.0,0.0,57,-99.99,,,-99.99,,2013-05-18 22:03:00,
2013-05-18 17:12:00,81.0,65.0,-100.00,North,355,0.0,0.0,57,-99.99,,,-99.99,,2013-05-18 22:12:00,
2013-05-18 17:42:00,81.0,64.0,-100.00,North,355,0.0,0.0,57,-99.99,,,-99.99,,2013-05-18 22:42:00,
2013-05-18 17:53:00,81.0,64.0,-100.00,North,355,0.0,0.0,57,-99.99,,,-99.99,,2013-05-18 22:53:00,
2013-05-18 18:01:00,81.0,64.0,-100.00,North,355,0.0,0.0,57,-99.99,,,-99.99,,2013-05-18 23:01:00,
2013-05-18 18:12:00,81.0,64.0,-100.00,North,355,0.0,0.0,57,-99.99,,,-99.99,,2013-05-18 23:12:00,
2013-05-18 18:42:00,81.0,65.0,-100.00,North,355,0.0,0.0,58,-99.99,,,-99.99,,2013-05-18 23:42:00,
2013-05-18 18:53:00,81.0,65.0,-100.00,North,355,0.0,0.0,58,-99.99,,,-99.99,,2013-05-18 23:53:00,
2013-05-18 19:01:00,81.0,65.0,-100.00,North,355,0.0,0.0,58,-99.99,,,-99.99,,2013-05-19 00:01:00,
2013-05-18 19:11:00,81.0,65.0,-100.00,North,355,0.0,0.0,58,-99.99,,,-99.99,,2013-05-19 00:11:00,
2013-05-18 19:42:00,80.0,66.0,-100.00,North,355,0.0,0.0,63,-99.99,,,-99.99,,2013-05-19 00:42:00,
2013-05-18 19:52:00,80.0,66.0,-100.00,North,355,0.0,0.0,63,-99.99,,,-99.99,,2013-05-19 00:52:00,
2013-05-18 20:01:00,80.0,66.0,-100.00,North,355,0.0,0.0,63,-99.99,,,-99.99,,2013-05-19 01:01:00,
2013-05-18 20:11:00,80.0,66.0,-100.00,North,355,0.0,0.0,63,-99.99,,,-99.99,,2013-05-19 01:11:00,
2013-05-18 20:42:00,75.0,66.0,-100.00,North,355,0.0,0.0,72,-99.99,,,-99.99,,2013-05-19 01:42:00,
2013-05-18 20:52:00,75.0,66.0,-100.00,North,355,0.0,0.0,72,-99.99,,,-99.99,,2013-05-19 01:52:00,
2013-05-18 21:01:00,75.0,66.0,-100.00,North,355,0.0,0.0,72,-99.99,,,-99.99,,2013-05-19 02:01:00,
2013-05-18 21:11:00,75.0,66.0,-100.00,North,355,0.0,0.0,72,-99.99,,,-99.99,,2013-05-19 02:11:00,
2013-05-18 21:42:00,70.0,66.0,-100.00,North,355,0.0,0.0,87,-99.99,,,-99.99,,2013-05-19 02:42:00,
2013-05-18 21:52:00,70.0,66.0,-100.00,North,355,0.0,0.0,87,-99.99,,,-99.99,,2013-05-19 02:52:00,
2013-05-18 22:01:00,70.0,66.0,-100.00,North,355,0.0,0.0,87,-99.99,,,-99.99,,2013-05-19 03:01:00,
2013-05-18 22:11:00,70.0,66.0,-100.00,North,355,0.0,0.0,87,-99.99,,,-99.99,,2013-05-19 03:11:00,
2013-05-18 22:43:00,67.0,67.0,-100.00,North,355,0.0,0.0,99,-99.99,,,-99.99,,2013-05-19 03:43:00,
2013-05-18 22:53:00,67.0,67.0,-100.00,North,355,0.0,0.0,99,-99.99,,,-99.99,,2013-05-19 03:53:00,
2013-05-18 23:42:00,67.0,67.0,-100.00,North,355,0.0,0.0,99,-99.99,,,-99.99,,2013-05-19 04:42:00,
2013-05-18 23:53:00,67.0,67.0,-100.00,North,355,0.0,0.0,99,-99.99,,,-99.99,,2013-05-19 04:53:00,